Torna al catalogo

AE3VA

AttivoScienzaSSO
NORAD 64563·PAYLOAD·🇯🇵 Japan

Lanciato Jun 23, 2025 da Vandenberg Space Force Base

Loading…

Prossimi Passaggi (prossime 24 ore)

TLE

AggiornatoSource: Space-Track

Epoca: Sep 14, 2026, 13:19 UTC

1 64563U 25135AM  26257.55512723  .00004256  00000-0  36492-3 0  9996
2 64563  97.7766  11.9812 0002412  12.4816 347.6465 14.98057104 67312

Traccia AE3VA in tempo reale con AllMySat

Download on the App Store